"FILENAME","TIMESTAMP","SAMPLE","STATION","LATITUDE","LONGITUDE","SAMPLE_DATE","SAMPLE_TIME","DEPTH","DEPTH_UNITS","TOTALQ","TOTALV","TOTALU","FECALQ","FECALV","FECALU","ENTEROQ","ENTEROV","ENTEROU",
"201505COLISBOO.csv","2015JUL29101128","1505058722","S9",  32.67700,-117.17800,"20150505",747,,"m","e",20,"CFU/100 mL","e",2,"CFU/100 mL","<",2,"CFU/100 mL",
"201505COLISBOO.csv","2015JUL29101128","1505058723","S8",  32.63680,-117.14400,"20150505",806,,"m","e",60,"CFU/100 mL","<",2,"CFU/100 mL","e",4,"CFU/100 mL",
"201505COLISBOO.csv","2015JUL29101128","1505058724","S5",  32.55780,-117.13100,"20150505",927,,"m","e",100,"CFU/100 mL","e",2,"CFU/100 mL","e",14,"CFU/100 mL",
"201505COLISBOO.csv","2015JUL29101128","1505058726","S11",  32.56130,-117.13200,"20150505",939,,"m","e",60,"CFU/100 mL","<",2,"CFU/100 mL","e",8,"CFU/100 mL",
"201505COLISBOO.csv","2015JUL29101128","1505058727","S6",  32.56630,-117.13300,"20150505",943,,"m","e",60,"CFU/100 mL","<",2,"CFU/100 mL","e",2,"CFU/100 mL",
"201505COLISBOO.csv","2015JUL29101128","1505058728","S12",  32.58570,-117.13300,"20150505",952,,"m","e",40,"CFU/100 mL","e",2,"CFU/100 mL","e",8,"CFU/100 mL",
"201505COLISBOO.csv","2015JUL29101128","1505058729","S4",  32.53530,-117.12500,"20150505",1123,,"m","e",20,"CFU/100 mL","<",2,"CFU/100 mL","e",2,"CFU/100 mL",
"201505COLISBOO.csv","2015JUL29101128","1505058730","S10",  32.54330,-117.12500,"20150505",1128,,"m","<",20,"CFU/100 mL","<",2,"CFU/100 mL","e",2,"CFU/100 mL",
"201505COLISBOO.csv","2015JUL29101128","1505068065","I12",  32.53283,-117.18300,"20150506",1104,2,"m","<",2,"CFU/100 mL","<",2,"CFU/100 mL","<",2,"CFU/100 mL",
"201505COLISBOO.csv","2015JUL29101128","1505068066","I12",  32.53283,-117.18300,"20150506",1104,18,"m","e",2,"CFU/100 mL","<",2,"CFU/100 mL","<",2,"CFU/100 mL",
"201505COLISBOO.csv","2015JUL29101128","1505068067","I12",  32.53283,-117.18300,"20150506",1104,27,"m","<",2,"CFU/100 mL","<",2,"CFU/100 mL","<",2,"CFU/100 mL",
"201505COLISBOO.csv","2015JUL29101128","1505068068","I14",  32.54300,-117.18400,"20150506",1125,2,"m","<",2,"CFU/100 mL","<",2,"CFU/100 mL","<",2,"CFU/100 mL",
"201505COLISBOO.csv","2015JUL29101128","1505068069","I14",  32.54300,-117.18400,"20150506",1125,18,"m","e",6,"CFU/100 mL","<",2,"CFU/100 mL","<",2,"CFU/100 mL",
"201505COLISBOO.csv","2015JUL29101128","1505068070","I14",  32.54300,-117.18400,"20150506",1125,27,"m","<",2,"CFU/100 mL","<",2,"CFU/100 mL","<",2,"CFU/100 mL",
"201505COLISBOO.csv","2015JUL29101128","1505068071","I16",  32.53783,-117.18300,"20150506",1043,2,"m","<",2,"CFU/100 mL","<",2,"CFU/100 mL","<",2,"CFU/100 mL",
"201505COLISBOO.csv","2015JUL29101128","1505068072","I16",  32.53783,-117.18300,"20150506",1043,18,"m","e",8,"CFU/100 mL","<",2,"CFU/100 mL","e",2,"CFU/100 mL",
"201505COLISBOO.csv","2015JUL29101128","1505068073","I16",  32.53783,-117.18300,"20150506",1043,27,"m","<",2,"CFU/100 mL","<",2,"CFU/100 mL","<",2,"CFU/100 mL",
"201505COLISBOO.csv","2015JUL29101128","1505068074","I18",  32.53617,-117.16100,"20150506",1012,2,"m","<",2,"CFU/100 mL","<",2,"CFU/100 mL","<",2,"CFU/100 mL",
"201505COLISBOO.csv","2015JUL29101128","1505068075","I18",  32.53617,-117.16100,"20150506",1012,12,"m","e",4,"CFU/100 mL","e",2,"CFU/100 mL","<",2,"CFU/100 mL",
"201505COLISBOO.csv","2015JUL29101128","1505068076","I18",  32.53617,-117.16100,"20150506",1012,18,"m","e",6,"CFU/100 mL","e",2,"CFU/100 mL","<",2,"CFU/100 mL",
"201505COLISBOO.csv","2015JUL29101128","1505068077","I19",  32.53633,-117.12900,"20150506",955,2,"m","e",2,"CFU/100 mL","<",2,"CFU/100 mL","e",2,"CFU/100 mL",
"201505COLISBOO.csv","2015JUL29101128","1505068078","I19",  32.53633,-117.12900,"20150506",955,6,"m","",52,"CFU/100 mL","e",2,"CFU/100 mL","e",2,"CFU/100 mL",
"201505COLISBOO.csv","2015JUL29101128","1505068079","I19",  32.53633,-117.12900,"20150506",955,11,"m","",40,"CFU/100 mL","<",2,"CFU/100 mL","e",14,"CFU/100 mL",
"201505COLISBOO.csv","2015JUL29101128","1505068080","I22",  32.55333,-117.18500,"20150506",1136,2,"m","<",2,"CFU/100 mL","<",2,"CFU/100 mL","<",2,"CFU/100 mL",
"201505COLISBOO.csv","2015JUL29101128","1505068081","I22",  32.55333,-117.18500,"20150506",1136,18,"m","e",8,"CFU/100 mL","<",2,"CFU/100 mL","<",2,"CFU/100 mL",
"201505COLISBOO.csv","2015JUL29101128","1505068082","I22",  32.55333,-117.18500,"20150506",1136,27,"m","<",2,"CFU/100 mL","<",2,"CFU/100 mL","<",2,"CFU/100 mL",
"201505COLISBOO.csv","2015JUL29101128","1505068083","I23",  32.55083,-117.16500,"20150506",1149,2,"m","<",2,"CFU/100 mL","<",2,"CFU/100 mL","<",2,"CFU/100 mL",
"201505COLISBOO.csv","2015JUL29101128","1505068084","I23",  32.55083,-117.16500,"20150506",1149,12,"m","e",8,"CFU/100 mL","e",2,"CFU/100 mL","<",2,"CFU/100 mL",
"201505COLISBOO.csv","2015JUL29101128","1505068085","I23",  32.55083,-117.16500,"20150506",1149,18,"m","e",6,"CFU/100 mL","e",2,"CFU/100 mL","<",2,"CFU/100 mL",
"201505COLISBOO.csv","2015JUL29101128","1505068086","I24",  32.55667,-117.14500,"20150506",911,2,"m","e",4,"CFU/100 mL","<",2,"CFU/100 mL","e",2,"CFU/100 mL",
"201505COLISBOO.csv","2015JUL29101128","1505068087","I24",  32.55667,-117.14500,"20150506",911,6,"m","<",20,"CFU/100 mL","e",8,"CFU/100 mL","e",2,"CFU/100 mL",
"201505COLISBOO.csv","2015JUL29101128","1505068088","I24",  32.55667,-117.14500,"20150506",911,11,"m","e",20,"CFU/100 mL","<",2,"CFU/100 mL","<",2,"CFU/100 mL",
"201505COLISBOO.csv","2015JUL29101128","1505068089","I25",  32.56117,-117.14800,"20150506",900,2,"m","<",2,"CFU/100 mL","<",2,"CFU/100 mL","<",2,"CFU/100 mL",
"201505COLISBOO.csv","2015JUL29101128","1505068090","I25",  32.56117,-117.14800,"20150506",900,6,"m","e",80,"CFU/100 mL","e",2,"CFU/100 mL","e",4,"CFU/100 mL",
"201505COLISBOO.csv","2015JUL29101128","1505068091","I25",  32.56117,-117.14800,"20150506",900,9,"m","e",20,"CFU/100 mL","e",14,"CFU/100 mL","e",2,"CFU/100 mL",
"201505COLISBOO.csv","2015JUL29101128","1505068092","I26",  32.57450,-117.14700,"20150506",941,2,"m","e",2,"CFU/100 mL","<",2,"CFU/100 mL","<",2,"CFU/100 mL",
"201505COLISBOO.csv","2015JUL29101128","1505068093","I26",  32.57450,-117.14700,"20150506",941,6,"m","e",20,"CFU/100 mL","<",2,"CFU/100 mL","<",2,"CFU/100 mL",
"201505COLISBOO.csv","2015JUL29101128","1505068094","I26",  32.57450,-117.14700,"20150506",941,9,"m","<",2,"CFU/100 mL","e",2,"CFU/100 mL","<",2,"CFU/100 mL",
"201505COLISBOO.csv","2015JUL29101128","1505068095","I39",  32.57233,-117.16750,"20150506",920,2,"m","<",2,"CFU/100 mL","e",4,"CFU/100 mL","<",2,"CFU/100 mL",
"201505COLISBOO.csv","2015JUL29101128","1505068096","I39",  32.57233,-117.16750,"20150506",920,12,"m","e",4,"CFU/100 mL","<",2,"CFU/100 mL","<",2,"CFU/100 mL",
"201505COLISBOO.csv","2015JUL29101128","1505068097","I39",  32.57233,-117.16750,"20150506",920,18,"m","e",6,"CFU/100 mL","<",2,"CFU/100 mL","<",2,"CFU/100 mL",
"201505COLISBOO.csv","2015JUL29101128","1505068098","I40",  32.55383,-117.13617,"20150506",922,2,"m","<",2,"CFU/100 mL","<",2,"CFU/100 mL","<",2,"CFU/100 mL",
"201505COLISBOO.csv","2015JUL29101128","1505068099","I40",  32.55383,-117.13617,"20150506",922,6,"m","e",14,"CFU/100 mL","e",4,"CFU/100 mL","e",8,"CFU/100 mL",
"201505COLISBOO.csv","2015JUL29101128","1505068100","I40",  32.55383,-117.13617,"20150506",922,9,"m","e",20,"CFU/100 mL","e",8,"CFU/100 mL","<",2,"CFU/100 mL",
"201505COLISBOO.csv","2015JUL29101128","1505068776","S3",  32.52570,-117.12400,"20150506",1002,,"m","e",20,"CFU/100 mL","<",2,"CFU/100 mL","<",2,"CFU/100 mL",
"201505COLISBOO.csv","2015JUL29101128","1505068777","S2",  32.49870,-117.12300,"20150506",938,,"m","e",2,"CFU/100 mL","<",2,"CFU/100 mL","<",2,"CFU/100 mL",
"201505COLISBOO.csv","2015JUL29101128","1505068778","S0",  32.41913,-117.09728,"20150506",1055,,"m","<",20,"CFU/100 mL","e",2,"CFU/100 mL","<",2,"CFU/100 mL",
"201505COLISBOO.csv","2015JUL29101128","1505078149","I10",  32.51667,-117.15600,"20150507",1101,2,"m","<",2,"CFU/100 mL","<",2,"CFU/100 mL","<",2,"CFU/100 mL",
"201505COLISBOO.csv","2015JUL29101128","1505078150","I10",  32.51667,-117.15600,"20150507",1101,12,"m","e",40,"CFU/100 mL","<",2,"CFU/100 mL","e",4,"CFU/100 mL",
"201505COLISBOO.csv","2015JUL29101128","1505078151","I10",  32.51667,-117.15600,"20150507",1101,18,"m","e",20,"CFU/100 mL","<",2,"CFU/100 mL","e",4,"CFU/100 mL",
"201505COLISBOO.csv","2015JUL29101128","1505078152","I11",  32.51333,-117.13700,"20150507",1046,2,"m","e",40,"CFU/100 mL","e",2,"CFU/100 mL","<",2,"CFU/100 mL",
"201505COLISBOO.csv","2015JUL29101128","1505078153","I11",  32.51333,-117.13700,"20150507",1046,6,"m","<",20,"CFU/100 mL","e",4,"CFU/100 mL","e",4,"CFU/100 mL",
"201505COLISBOO.csv","2015JUL29101128","1505078154","I11",  32.51333,-117.13700,"20150507",1046,11,"m","e",80,"CFU/100 mL","e",8,"CFU/100 mL","e",10,"CFU/100 mL",
"201505COLISBOO.csv","2015JUL29101128","1505078155","I13",  32.53750,-117.21200,"20150507",1150,2,"m","<",2,"CFU/100 mL","<",2,"CFU/100 mL","<",2,"CFU/100 mL",
"201505COLISBOO.csv","2015JUL29101128","1505078156","I13",  32.53750,-117.21200,"20150507",1150,18,"m","<",2,"CFU/100 mL","<",2,"CFU/100 mL","<",2,"CFU/100 mL",
"201505COLISBOO.csv","2015JUL29101128","1505078157","I13",  32.53750,-117.21200,"20150507",1150,37,"m","<",2,"CFU/100 mL","<",2,"CFU/100 mL","<",2,"CFU/100 mL",
"201505COLISBOO.csv","2015JUL29101128","1505078158","I20",  32.55700,-117.25700,"20150507",819,2,"m","<",2,"CFU/100 mL","<",2,"CFU/100 mL","<",2,"CFU/100 mL",
"201505COLISBOO.csv","2015JUL29101128","1505078159","I20",  32.55700,-117.25700,"20150507",819,18,"m","<",2,"CFU/100 mL","<",2,"CFU/100 mL","<",2,"CFU/100 mL",
"201505COLISBOO.csv","2015JUL29101128","1505078160","I20",  32.55700,-117.25700,"20150507",819,55,"m","<",2,"CFU/100 mL","<",2,"CFU/100 mL","e",2,"CFU/100 mL",
"201505COLISBOO.csv","2015JUL29101128","1505078161","I21",  32.56067,-117.22700,"20150507",1208,2,"m","<",2,"CFU/100 mL","<",2,"CFU/100 mL","<",2,"CFU/100 mL",
"201505COLISBOO.csv","2015JUL29101128","1505078162","I21",  32.56067,-117.22700,"20150507",1208,18,"m","<",2,"CFU/100 mL","<",2,"CFU/100 mL","<",2,"CFU/100 mL",
"201505COLISBOO.csv","2015JUL29101128","1505078163","I21",  32.56067,-117.22700,"20150507",1208,37,"m","<",2,"CFU/100 mL","<",2,"CFU/100 mL","<",2,"CFU/100 mL",
"201505COLISBOO.csv","2015JUL29101128","1505078164","I3",  32.46700,-117.16800,"20150507",948,2,"m","<",2,"CFU/100 mL","<",2,"CFU/100 mL","<",2,"CFU/100 mL",
"201505COLISBOO.csv","2015JUL29101128","1505078165","I3",  32.46700,-117.16800,"20150507",948,18,"m","e",2,"CFU/100 mL","<",2,"CFU/100 mL","<",2,"CFU/100 mL",
"201505COLISBOO.csv","2015JUL29101128","1505078166","I3",  32.46700,-117.16800,"20150507",948,27,"m","<",2,"CFU/100 mL","<",2,"CFU/100 mL","<",2,"CFU/100 mL",
"201505COLISBOO.csv","2015JUL29101128","1505078167","I5",  32.47167,-117.13000,"20150507",1013,2,"m","e",2,"CFU/100 mL","<",2,"CFU/100 mL","<",2,"CFU/100 mL",
"201505COLISBOO.csv","2015JUL29101128","1505078168","I5",  32.47167,-117.13000,"20150507",1013,6,"m","e",6,"CFU/100 mL","<",2,"CFU/100 mL","<",2,"CFU/100 mL",
"201505COLISBOO.csv","2015JUL29101128","1505078169","I5",  32.47167,-117.13000,"20150507",1013,11,"m","e",60,"CFU/100 mL","e",4,"CFU/100 mL","e",10,"CFU/100 mL",
"201505COLISBOO.csv","2015JUL29101128","1505078170","I7",  32.51667,-117.25300,"20150507",843,2,"m","<",2,"CFU/100 mL","<",2,"CFU/100 mL","<",2,"CFU/100 mL",
"201505COLISBOO.csv","2015JUL29101128","1505078171","I7",  32.51667,-117.25300,"20150507",843,18,"m","<",2,"CFU/100 mL","<",2,"CFU/100 mL","<",2,"CFU/100 mL",
"201505COLISBOO.csv","2015JUL29101128","1505078172","I7",  32.51667,-117.25300,"20150507",843,52,"m","e",2,"CFU/100 mL","<",2,"CFU/100 mL","<",2,"CFU/100 mL",
"201505COLISBOO.csv","2015JUL29101128","1505078173","I8",  32.51667,-117.20200,"20150507",1133,2,"m","<",2,"CFU/100 mL","<",2,"CFU/100 mL","<",2,"CFU/100 mL",
"201505COLISBOO.csv","2015JUL29101128","1505078174","I8",  32.51667,-117.20200,"20150507",1133,18,"m","<",2,"CFU/100 mL","<",2,"CFU/100 mL","<",2,"CFU/100 mL",
"201505COLISBOO.csv","2015JUL29101128","1505078175","I8",  32.51667,-117.20200,"20150507",1133,37,"m","<",2,"CFU/100 mL","<",2,"CFU/100 mL","<",2,"CFU/100 mL",
"201505COLISBOO.csv","2015JUL29101128","1505078176","I9",  32.51167,-117.17900,"20150507",1116,2,"m","<",2,"CFU/100 mL","<",2,"CFU/100 mL","<",2,"CFU/100 mL",
"201505COLISBOO.csv","2015JUL29101128","1505078177","I9",  32.51167,-117.17900,"20150507",1116,18,"m","<",2,"CFU/100 mL","<",2,"CFU/100 mL","<",2,"CFU/100 mL",
"201505COLISBOO.csv","2015JUL29101128","1505078178","I9",  32.51167,-117.17900,"20150507",1116,27,"m","<",2,"CFU/100 mL","<",2,"CFU/100 mL","<",2,"CFU/100 mL",
"201505COLISBOO.csv","2015JUL29101128","1505088219","I30",  32.59533,-117.19700,"20150508",938,2,"m","<",2,"CFU/100 mL","<",2,"CFU/100 mL","<",2,"CFU/100 mL",
"201505COLISBOO.csv","2015JUL29101128","1505088220","I30",  32.59533,-117.19700,"20150508",938,18,"m","",64,"CFU/100 mL","e",20,"CFU/100 mL","e",8,"CFU/100 mL",
"201505COLISBOO.csv","2015JUL29101128","1505088221","I30",  32.59533,-117.19700,"20150508",938,27,"m","e",2,"CFU/100 mL","e",2,"CFU/100 mL","<",2,"CFU/100 mL",
"201505COLISBOO.csv","2015JUL29101128","1505088222","I32",  32.59467,-117.13800,"20150508",1010,2,"m","<",2,"CFU/100 mL","<",2,"CFU/100 mL","<",2,"CFU/100 mL",
"201505COLISBOO.csv","2015JUL29101128","1505088223","I32",  32.59467,-117.13800,"20150508",1010,6,"m","<",2,"CFU/100 mL","<",2,"CFU/100 mL","<",2,"CFU/100 mL",
"201505COLISBOO.csv","2015JUL29101128","1505088224","I32",  32.59467,-117.13800,"20150508",1010,9,"m","<",2,"CFU/100 mL","<",2,"CFU/100 mL","<",2,"CFU/100 mL",
"201505COLISBOO.csv","2015JUL29101128","1505088225","I33",  32.62383,-117.23700,"20150508",840,2,"m","<",2,"CFU/100 mL","<",2,"CFU/100 mL","<",2,"CFU/100 mL",
"201505COLISBOO.csv","2015JUL29101128","1505088226","I33",  32.62383,-117.23700,"20150508",840,18,"m","<",2,"CFU/100 mL","<",2,"CFU/100 mL","<",2,"CFU/100 mL",
"201505COLISBOO.csv","2015JUL29101128","1505088227","I33",  32.62383,-117.23700,"20150508",840,27,"m","<",2,"CFU/100 mL","<",2,"CFU/100 mL","<",2,"CFU/100 mL",
"201505COLISBOO.csv","2015JUL29101128","1505088228","I36",  32.63917,-117.15400,"20150508",1030,2,"m","<",2,"CFU/100 mL","<",2,"CFU/100 mL","<",2,"CFU/100 mL",
"201505COLISBOO.csv","2015JUL29101128","1505088229","I36",  32.63917,-117.15400,"20150508",1030,6,"m","<",2,"CFU/100 mL","<",2,"CFU/100 mL","<",2,"CFU/100 mL",
"201505COLISBOO.csv","2015JUL29101128","1505088230","I36",  32.63917,-117.15400,"20150508",1030,11,"m","<",2,"CFU/100 mL","<",2,"CFU/100 mL","<",2,"CFU/100 mL",
"201505COLISBOO.csv","2015JUL29101128","1505088231","I37",  32.64800,-117.21633,"20150508",804,2,"m","<",2,"CFU/100 mL","<",2,"CFU/100 mL","e",2,"CFU/100 mL",
"201505COLISBOO.csv","2015JUL29101128","1505088232","I37",  32.64800,-117.21633,"20150508",804,6,"m","<",2,"CFU/100 mL","<",2,"CFU/100 mL","<",2,"CFU/100 mL",
"201505COLISBOO.csv","2015JUL29101128","1505088233","I37",  32.64800,-117.21633,"20150508",804,11,"m","<",2,"CFU/100 mL","<",2,"CFU/100 mL","<",2,"CFU/100 mL",
"201505COLISBOO.csv","2015JUL29101128","1505088234","I38",  32.66883,-117.18667,"20150508",1100,2,"m","<",2,"CFU/100 mL","<",2,"CFU/100 mL","<",2,"CFU/100 mL",
"201505COLISBOO.csv","2015JUL29101128","1505088235","I38",  32.66883,-117.18667,"20150508",1100,6,"m","<",2,"CFU/100 mL","<",2,"CFU/100 mL","<",2,"CFU/100 mL",
"201505COLISBOO.csv","2015JUL29101128","1505088236","I38",  32.66883,-117.18667,"20150508",1100,11,"m","<",2,"CFU/100 mL","<",2,"CFU/100 mL","<",2,"CFU/100 mL",
"201505COLISBOO.csv","2015JUL29101128","1505128869","S9",  32.67700,-117.17800,"20150512",816,,"m","<",20,"CFU/100 mL","<",2,"CFU/100 mL","<",2,"CFU/100 mL",
"201505COLISBOO.csv","2015JUL29101128","1505128870","S8",  32.63680,-117.14400,"20150512",832,,"m","<",2,"CFU/100 mL","<",2,"CFU/100 mL","<",2,"CFU/100 mL",
"201505COLISBOO.csv","2015JUL29101128","1505128871","S5",  32.55780,-117.13100,"20150512",951,,"m",">",16000,"CFU/100 mL","e",2800,"CFU/100 mL","e",280,"CFU/100 mL",
"201505COLISBOO.csv","2015JUL29101128","1505128872","S11",  32.56130,-117.13200,"20150512",959,,"m","<",20,"CFU/100 mL","e",10,"CFU/100 mL","<",2,"CFU/100 mL",
"201505COLISBOO.csv","2015JUL29101128","1505128873","S6",  32.56630,-117.13300,"20150512",1003,,"m","<",20,"CFU/100 mL","e",2,"CFU/100 mL","<",2,"CFU/100 mL",
"201505COLISBOO.csv","2015JUL29101128","1505128874","S12",  32.58570,-117.13300,"20150512",1012,,"m","<",2,"CFU/100 mL","<",2,"CFU/100 mL","<",2,"CFU/100 mL",
"201505COLISBOO.csv","2015JUL29101128","1505128875","S4",  32.53530,-117.12500,"20150512",1133,,"m","<",20,"CFU/100 mL","<",2,"CFU/100 mL","<",2,"CFU/100 mL",
"201505COLISBOO.csv","2015JUL29101128","1505128876","S10",  32.54330,-117.12500,"20150512",1138,,"m","e",200,"CFU/100 mL","e",20,"CFU/100 mL","<",2,"CFU/100 mL",
"201505COLISBOO.csv","2015JUL29101128","1505128981","S3",  32.52570,-117.12400,"20150512",1100,,"m","<",2,"CFU/100 mL","<",2,"CFU/100 mL","<",2,"CFU/100 mL",
"201505COLISBOO.csv","2015JUL29101128","1505128982","S2",  32.49870,-117.12300,"20150512",1130,,"m","e",2,"CFU/100 mL","<",2,"CFU/100 mL","<",2,"CFU/100 mL",
"201505COLISBOO.csv","2015JUL29101128","1505128983","S0",  32.41913,-117.09728,"20150512",1030,,"m","",880,"CFU/100 mL","e",140,"CFU/100 mL","",48,"CFU/100 mL",
"201505COLISBOO.csv","2015JUL29101128","1505148980","S5",  32.55780,-117.13100,"20150514",830,,"m","e",40,"CFU/100 mL","e",20,"CFU/100 mL","e",8,"CFU/100 mL",
"201505COLISBOO.csv","2015JUL29101128","1505158625","I19",  32.53633,-117.12900,"20150515",1153,2,"m","e",3000,"CFU/100 mL","e",260,"CFU/100 mL","",840,"CFU/100 mL",
"201505COLISBOO.csv","2015JUL29101128","1505158626","I19",  32.53633,-117.12900,"20150515",1153,6,"m","",480,"CFU/100 mL","",48,"CFU/100 mL","",100,"CFU/100 mL",
"201505COLISBOO.csv","2015JUL29101128","1505158627","I19",  32.53633,-117.12900,"20150515",1153,11,"m","e",8,"CFU/100 mL","<",2,"CFU/100 mL","e",2,"CFU/100 mL",
"201505COLISBOO.csv","2015JUL29101128","1505158628","I24",  32.55667,-117.14500,"20150515",1217,2,"m","<",2,"CFU/100 mL","<",2,"CFU/100 mL","<",2,"CFU/100 mL",
"201505COLISBOO.csv","2015JUL29101128","1505158629","I24",  32.55667,-117.14500,"20150515",1217,6,"m","<",2,"CFU/100 mL","<",2,"CFU/100 mL","<",2,"CFU/100 mL",
"201505COLISBOO.csv","2015JUL29101128","1505158630","I24",  32.55667,-117.14500,"20150515",1217,11,"m","<",2,"CFU/100 mL","<",2,"CFU/100 mL","<",2,"CFU/100 mL",
"201505COLISBOO.csv","2015JUL29101128","1505158631","I25",  32.56117,-117.14800,"20150515",1226,2,"m","e",2,"CFU/100 mL","<",2,"CFU/100 mL","<",2,"CFU/100 mL",
"201505COLISBOO.csv","2015JUL29101128","1505158632","I25",  32.56117,-117.14800,"20150515",1226,6,"m","<",2,"CFU/100 mL","<",2,"CFU/100 mL","<",2,"CFU/100 mL",
"201505COLISBOO.csv","2015JUL29101128","1505158633","I25",  32.56117,-117.14800,"20150515",1226,9,"m","<",2,"CFU/100 mL","<",2,"CFU/100 mL","<",2,"CFU/100 mL",
"201505COLISBOO.csv","2015JUL29101128","1505158634","I26",  32.57450,-117.14700,"20150515",1237,2,"m","<",2,"CFU/100 mL","<",2,"CFU/100 mL","<",2,"CFU/100 mL",
"201505COLISBOO.csv","2015JUL29101128","1505158635","I26",  32.57450,-117.14700,"20150515",1237,6,"m","e",2,"CFU/100 mL","<",2,"CFU/100 mL","<",2,"CFU/100 mL",
"201505COLISBOO.csv","2015JUL29101128","1505158636","I26",  32.57450,-117.14700,"20150515",1237,9,"m","<",2,"CFU/100 mL","<",2,"CFU/100 mL","<",2,"CFU/100 mL",
"201505COLISBOO.csv","2015JUL29101128","1505158637","I32",  32.59467,-117.13800,"20150515",1252,2,"m","e",60,"CFU/100 mL","e",24,"CFU/100 mL","e",6,"CFU/100 mL",
"201505COLISBOO.csv","2015JUL29101128","1505158638","I32",  32.59467,-117.13800,"20150515",1252,6,"m","e",16,"CFU/100 mL","<",2,"CFU/100 mL","<",2,"CFU/100 mL",
"201505COLISBOO.csv","2015JUL29101128","1505158639","I32",  32.59467,-117.13800,"20150515",1252,9,"m","e",10,"CFU/100 mL","e",2,"CFU/100 mL","e",2,"CFU/100 mL",
"201505COLISBOO.csv","2015JUL29101128","1505158640","I39",  32.57233,-117.16750,"20150515",1130,2,"m","<",2,"CFU/100 mL","<",2,"CFU/100 mL","<",2,"CFU/100 mL",
"201505COLISBOO.csv","2015JUL29101128","1505158641","I39",  32.57233,-117.16750,"20150515",1130,12,"m","<",2,"CFU/100 mL","<",2,"CFU/100 mL","<",2,"CFU/100 mL",
"201505COLISBOO.csv","2015JUL29101128","1505158642","I39",  32.57233,-117.16750,"20150515",1130,18,"m","<",2,"CFU/100 mL","<",2,"CFU/100 mL","<",2,"CFU/100 mL",
"201505COLISBOO.csv","2015JUL29101128","1505158643","I40",  32.55383,-117.13617,"20150515",1207,2,"m","e",160,"CFU/100 mL","e",16,"CFU/100 mL","",66,"CFU/100 mL",
"201505COLISBOO.csv","2015JUL29101128","1505158644","I40",  32.55383,-117.13617,"20150515",1207,6,"m","e",28,"CFU/100 mL","e",8,"CFU/100 mL","e",16,"CFU/100 mL",
"201505COLISBOO.csv","2015JUL29101128","1505158645","I40",  32.55383,-117.13617,"20150515",1207,9,"m","e",2,"CFU/100 mL","e",2,"CFU/100 mL","<",2,"CFU/100 mL",
"201505COLISBOO.csv","2015JUL29101128","1505199121","S9",  32.67700,-117.17800,"20150519",751,,"m","e",20,"CFU/100 mL","<",2,"CFU/100 mL","<",2,"CFU/100 mL",
"201505COLISBOO.csv","2015JUL29101128","1505199122","S8",  32.63680,-117.14400,"20150519",814,,"m","e",40,"CFU/100 mL","e",4,"CFU/100 mL","e",6,"CFU/100 mL",
"201505COLISBOO.csv","2015JUL29101128","1505199123","S5",  32.55780,-117.13100,"20150519",942,,"m",">",16000,"CFU/100 mL","",4800,"CFU/100 mL","",1000,"CFU/100 mL",
"201505COLISBOO.csv","2015JUL29101128","1505199124","S11",  32.56130,-117.13200,"20150519",949,,"m",">",16000,"CFU/100 mL","e",1000,"CFU/100 mL","e",260,"CFU/100 mL",
"201505COLISBOO.csv","2015JUL29101128","1505199125","S6",  32.56630,-117.13300,"20150519",954,,"m","",5600,"CFU/100 mL","e",300,"CFU/100 mL","e",28,"CFU/100 mL",
"201505COLISBOO.csv","2015JUL29101128","1505199126","S12",  32.58570,-117.13300,"20150519",1006,,"m","e",20,"CFU/100 mL","e",6,"CFU/100 mL","e",6,"CFU/100 mL",
"201505COLISBOO.csv","2015JUL29101128","1505199127","S4",  32.53530,-117.12500,"20150519",1111,,"m","e",22,"CFU/100 mL","e",8,"CFU/100 mL","<",2,"CFU/100 mL",
"201505COLISBOO.csv","2015JUL29101128","1505199128","S10",  32.54330,-117.12500,"20150519",1116,,"m","",12000,"CFU/100 mL","e",440,"CFU/100 mL","e",28,"CFU/100 mL",
"201505COLISBOO.csv","2015JUL29101128","1505199129","S3",  32.52570,-117.12400,"20150519",1120,,"m","",86,"CFU/100 mL","e",2,"CFU/100 mL","",40,"CFU/100 mL",
"201505COLISBOO.csv","2015JUL29101128","1505199130","S2",  32.49870,-117.12300,"20150519",1150,,"m","e",6,"CFU/100 mL","<",2,"CFU/100 mL","e",4,"CFU/100 mL",
"201505COLISBOO.csv","2015JUL29101128","1505199131","S0",  32.41913,-117.09728,"20150519",1025,,"m","",760,"CFU/100 mL","e",34,"CFU/100 mL","",66,"CFU/100 mL",
"201505COLISBOO.csv","2015JUL29101128","1505218924","I19",  32.53633,-117.12900,"20150521",1103,2,"m","e",2,"CFU/100 mL","<",2,"CFU/100 mL","<",2,"CFU/100 mL",
"201505COLISBOO.csv","2015JUL29101128","1505218925","I19",  32.53633,-117.12900,"20150521",1103,6,"m","e",4,"CFU/100 mL","<",2,"CFU/100 mL","<",2,"CFU/100 mL",
"201505COLISBOO.csv","2015JUL29101128","1505218926","I19",  32.53633,-117.12900,"20150521",1103,11,"m","e",4,"CFU/100 mL","<",2,"CFU/100 mL","<",2,"CFU/100 mL",
"201505COLISBOO.csv","2015JUL29101128","1505218927","I24",  32.55667,-117.14500,"20150521",1130,2,"m","<",2,"CFU/100 mL","<",2,"CFU/100 mL","<",2,"CFU/100 mL",
"201505COLISBOO.csv","2015JUL29101128","1505218928","I24",  32.55667,-117.14500,"20150521",1130,6,"m","",110,"CFU/100 mL","e",4,"CFU/100 mL","e",2,"CFU/100 mL",
"201505COLISBOO.csv","2015JUL29101128","1505218929","I24",  32.55667,-117.14500,"20150521",1130,11,"m","e",180,"CFU/100 mL","e",16,"CFU/100 mL","e",18,"CFU/100 mL",
"201505COLISBOO.csv","2015JUL29101128","1505218930","I25",  32.56117,-117.14800,"20150521",1139,2,"m","e",2,"CFU/100 mL","<",2,"CFU/100 mL","<",2,"CFU/100 mL",
"201505COLISBOO.csv","2015JUL29101128","1505218931","I25",  32.56117,-117.14800,"20150521",1139,6,"m","e",2,"CFU/100 mL","<",2,"CFU/100 mL","<",2,"CFU/100 mL",